Hill City, KS

1:39 AM CDT on September 28, 2016 (GMT -0500)
Hill City Municipal

Weather History for KHLC - May, 2011

Change the Weather History Date:

Sunday, May 8, 2011

  Actual Average Record
Temperature  
Mean Temperature 77 °F 60 °F  
Max Temperature 97 °F 73 °F 99 °F (1963)
Min Temperature 56 °F 47 °F 22 °F (1915)
Cooling Degree Days 10    
Growing Degree Days 26 (Base 50)    
Moisture  
Dew Point 49 °F    
Average Humidity 51    
Maximum Humidity 94    
Minimum Humidity 14    
Precipitation  
Precipitation 0.00 in 0.11 in 1.54 in (1949)
Month to date precipitation 0.05 0.90  
Year to date precipitation 2.37 5.62  
Sea Level Pressure  
Sea Level Pressure 29.52 in    
Wind  
Wind Speed 9 mph (SSE)    
Max Wind Speed 18 mph    
Max Gust Speed 26 mph    
Visibility 9 miles    
Events      
T = Trace of Precipitation, MM = Missing Value Source: NWS Daily Summary

Daily Weather History Graph

Daily Weather History Graph

Search for Another Location

Airport or City:

Trip Planner

Search our weather history database for the weather conditions in past years. The results will help you decide how hot, cold, wet, or windy it might be!

Date:

Astronomy

May. 08, 2011 Rise Set
Actual Time 6:32 AM CDT 8:39 PM CDT
Civil Twilight 6:03 AM CDT 9:09 PM CDT
Nautical Twilight 5:26 AM CDT 9:45 PM CDT
Astronomical Twilight 4:47 AM CDT 10:25 PM CDT
Moon 10:53 AM CDT (5/8) 12:51 AM CDT (5/8)
Length of Visible Light 15h 05m
Length of Day
14h 06m
Waxing Crescent, 28% of the Moon is Illuminated
May 8
Waxing Crescent
May 10
First Quarter
May 17
Full
May 24
Last Quarter
Jun 1
New

Hourly Weather History & Observations

Time (CDT) Temp. Heat Index Dew Point Humidity Pressure Visibility Wind Dir Wind Speed Gust Speed Precip Events Conditions
12:53 AM 61.0 °F - 51.1 °F 70% 29.66 in 10.0 mi East 8.1 mph - N/A   Clear
1:53 AM 64.9 °F - 51.1 °F 61% 29.65 in 10.0 mi ESE 6.9 mph - N/A   Clear
2:53 AM 64.0 °F - 51.1 °F 63% 29.65 in 10.0 mi SSE 6.9 mph - N/A   Clear
3:53 AM 61.0 °F - 52.0 °F 72% 29.64 in 10.0 mi SSE 3.5 mph - N/A   Clear
4:53 AM 59.0 °F - 52.0 °F 78% 29.62 in 10.0 mi East 6.9 mph - N/A   Clear
5:53 AM 55.9 °F - 53.1 °F 90% 29.61 in 10.0 mi North - - N/A   Clear
6:53 AM 55.9 °F - 54.0 °F 93% 29.61 in 7.0 mi East 6.9 mph - N/A   Clear
7:53 AM 59.0 °F - 57.0 °F 93% 29.61 in 6.0 mi East 4.6 mph - N/A   Scattered Clouds
7:58 AM 59.0 °F - 57.2 °F 94% 29.67 in 6.0 mi ESE 6.9 mph - N/A   Mostly Cloudy
8:53 AM 64.9 °F - 61.0 °F 87% 29.61 in 6.0 mi SSE 11.5 mph - N/A   Overcast
9:33 AM 66.2 °F - 60.8 °F 83% 29.66 in 8.0 mi South 12.7 mph - N/A   Overcast
9:53 AM 68.0 °F - 60.1 °F 76% 29.60 in 9.0 mi SSE 11.5 mph 24.2 mph N/A   Mostly Cloudy
10:00 AM 69.8 °F - 60.8 °F 73% 29.64 in 10.0 mi SSE 11.5 mph - N/A   Scattered Clouds
10:53 AM 75.0 °F - 60.1 °F 60% 29.57 in 10.0 mi South 11.5 mph 18.4 mph N/A   Partly Cloudy
11:53 AM 80.1 °F 80.6 °F 57.9 °F 47% 29.54 in 10.0 mi SSE 9.2 mph - N/A   Clear
12:53 PM 84.9 °F 83.9 °F 57.0 °F 38% 29.52 in 10.0 mi South 8.1 mph - N/A   Clear
1:53 PM 89.1 °F 87.3 °F 55.9 °F 32% 29.47 in 10.0 mi SSE 12.7 mph 19.6 mph N/A   Clear
2:53 PM 91.9 °F 90.0 °F 55.0 °F 29% 29.45 in 10.0 mi SE 18.4 mph 24.2 mph N/A   Clear
3:53 PM 95.0 °F - 48.0 °F 20% 29.42 in 10.0 mi South 12.7 mph 20.7 mph N/A   Clear
4:53 PM 96.1 °F - 44.1 °F 17% 29.39 in 10.0 mi SSE 18.4 mph 25.3 mph N/A   Clear
5:53 PM 96.1 °F - 42.1 °F 15% 29.37 in 10.0 mi SSE 17.3 mph 26.5 mph N/A   Clear
6:53 PM 95.0 °F - 37.9 °F 14% 29.34 in 10.0 mi SSE 17.3 mph 25.3 mph N/A   Clear
7:53 PM 90.0 °F - 36.0 °F 15% 29.34 in 10.0 mi SSE 10.4 mph - N/A   Clear
8:53 PM 78.1 °F - 32.0 °F 19% 29.37 in 10.0 mi South 4.6 mph - N/A   Clear
9:53 PM 73.9 °F - 26.1 °F 17% 29.37 in 10.0 mi SSW 5.8 mph - N/A   Clear
10:53 PM 73.0 °F - 24.1 °F 16% 29.37 in 10.0 mi SSW 9.2 mph - N/A   Clear
11:53 PM 70.0 °F - 23.0 °F 17% 29.36 in 10.0 mi SSW 9.2 mph - N/A   Clear